View from above orbital plane
|
View from above satellite
|
Ground track
|
The orbit data is extracted from the following two-line orbital elements,
1 12298U 81013B 21018.89052390 -.00000008 00000-0 -23951-4 0 9997
2 12298 82.9474 75.3250 0029975 178.1360 355.2047 13.76642744 5452
Epoch (UTC): | 18 January 2021 21:22:21 |
Eccentricity: | 0.0029975 |
inclination: | 82.9474° |
perigee height: | 954 km |
apogee height: | 998 km |
right ascension of ascending node: | 75.3250° |
argument of perigee: | 178.1360° |
revolutions per day: | 13.76642744 |
mean anomaly at epoch: | 355.2047° |
orbit number at epoch: | 545 |
The dashed part of the orbit path shows where the satellite is in the earth's shadow,
|
|